Terug naar catalogus

KUIPER-00189

ActiefCommunicatieLEO
NORAD 68574·PAYLOAD·🇺🇸 United States

Gelanceerd Apr 4, 2026 vanaf Cape Canaveral Space Force Station

Loading…

Volgende Passages (komende 24 uur)

TLE

VersSource: CelesTrak SupGP

Epoch: Sep 14, 2026, 12:55 UTC

1 68574C 26072B   26257.53854167  .00003197  00000+0  41857-3 0  2572
2 68574  51.8979 163.0183 0000879  93.9968 310.4320 14.79923627    15

Volg KUIPER-00189 in realtime met AllMySat

Download on the App Store